Mattoon, IL

1:42 AM CST on December 06, 2019 (GMT -0600)
Coles County Memorial

Weather History for KMTO - June, 2019

Change the Weather History Date:

Thursday, June 13, 2019

  Actual Average Record
Temperature  
Mean Temperature 62 °F 71 °F  
Max Temperature 72 °F 82 °F 99 °F (1987)
Min Temperature 51 °F 61 °F 47 °F (1985)
Degree Days  
Heating Degree Days 3 0  
Month to date heating degree days 3 14  
Since 1 June heating degree days 3 14  
Since 1 July heating degree days 5520 5404  
Cooling Degree Days 0 7  
Month to date cooling degree days 79 73  
Year to date cooling degree days 204 161  
Since 1 June cooling degree days 79 73  
Growing Degree Days 12 (Base 50)    
Moisture  
Dew Point 46 °F    
Average Humidity 57    
Maximum Humidity 86    
Minimum Humidity 27    
Precipitation  
Precipitation 0.00 in 0.14 in 1.22 in (1970)
Month to date precipitation 0.09 2.10  
Year to date precipitation 11.72 16.45  
Sea Level Pressure  
Sea Level Pressure 29.94 in    
Wind  
Wind Speed 15 mph (NW)    
Max Wind Speed 30 mph    
Max Gust Speed 37 mph    
Visibility 9 miles    
Events Rain    
T = Trace of Precipitation, MM = Missing Value Source: NWS Daily Summary

Daily Weather History Graph

Daily Weather History Graph

Search for Another Location

Airport or City:

Astronomy

Jun. 13, 2019 Rise Set
Actual Time 5:25 AM CDT 8:21 PM CDT
Civil Twilight 4:53 AM CDT 8:53 PM CDT
Nautical Twilight 4:12 AM CDT 9:34 PM CDT
Astronomical Twilight 3:24 AM CDT 10:21 PM CDT
Moon 4:36 PM CDT (6/13) 3:09 AM CDT (6/13)
Length of Visible Light 16h 00m
Length of Day
14h 55m
Waxing Gibbous, 85% of the Moon is Illuminated
Jun 13
Waxing Gibbous
Jun 17
Full
Jun 25
Last Quarter
Jul 2
New
Jul 9
First Quarter

Hourly Weather History & Observations

Time (CDT) Temp. Dew Point Humidity Pressure Visibility Wind Dir Wind Speed Gust Speed Precip Events Conditions
12:00 AM 59.0 °F 57.0 °F 93% 29.80 in 4.0 mi WNW 19.6 mph 27.6 mph 0.00 in Rain Light Rain
12:41 AM 57.9 °F 55.0 °F 90% 29.80 in 6.0 mi WNW 21.9 mph 29.9 mph 0.00 in Rain Light Rain
12:53 AM 57.9 °F 55.0 °F 90% 29.79 in 8.0 mi NW 23.0 mph 28.8 mph 0.00 in   Overcast
1:08 AM 57.9 °F 54.0 °F 87% 29.80 in 9.0 mi NW 19.6 mph 27.6 mph N/A   Overcast
1:53 AM 57.0 °F 54.0 °F 89% 29.80 in 9.0 mi WNW 17.3 mph 27.6 mph N/A   Overcast
2:53 AM 55.9 °F 52.0 °F 87% 29.81 in 9.0 mi WNW 17.3 mph - N/A   Scattered Clouds
3:53 AM 55.0 °F 51.1 °F 86% 29.83 in 9.0 mi NW 18.4 mph 25.3 mph N/A   Clear
4:51 AM 55.4 °F 51.8 °F 88% 29.85 in 8.0 mi NW 13.8 mph - N/A   Mostly Cloudy
4:53 AM 55.0 °F 51.1 °F 86% 29.85 in 8.0 mi NW 13.8 mph - N/A   Mostly Cloudy
5:08 AM 55.0 °F 51.1 °F 86% 29.86 in 9.0 mi WNW 12.7 mph - N/A   Overcast
5:22 AM 55.0 °F 51.1 °F 86% 29.86 in 8.0 mi WNW 16.1 mph 23.0 mph N/A   Overcast
5:53 AM 55.0 °F 51.1 °F 86% 29.87 in 7.0 mi WNW 13.8 mph - N/A   Scattered Clouds
6:53 AM 55.9 °F 50.0 °F 80% 29.90 in 7.0 mi NW 18.4 mph - N/A   Partly Cloudy
7:53 AM 57.9 °F 50.0 °F 75% 29.92 in 8.0 mi NW 16.1 mph - N/A   Partly Cloudy
8:53 AM 60.1 °F 50.0 °F 69% 29.94 in 9.0 mi NW 20.7 mph 28.8 mph N/A   Clear
9:53 AM 62.1 °F 46.0 °F 56% 29.95 in 9.0 mi NW 21.9 mph 31.1 mph N/A   Partly Cloudy
10:53 AM 64.9 °F 39.9 °F 40% 29.97 in 10.0 mi NNW 26.5 mph 36.8 mph N/A   Partly Cloudy
11:53 AM 66.9 °F 39.9 °F 37% 29.99 in 10.0 mi NW 25.3 mph 36.8 mph N/A   Partly Cloudy
12:53 PM 68.0 °F 39.9 °F 36% 30.00 in 10.0 mi NW 21.9 mph 33.4 mph N/A   Partly Cloudy
1:53 PM 68.0 °F 39.0 °F 35% 30.00 in 10.0 mi NW 21.9 mph 32.2 mph N/A   Mostly Cloudy
2:53 PM 71.1 °F 37.9 °F 30% 30.01 in 10.0 mi NW 23.0 mph 36.8 mph N/A   Scattered Clouds
3:53 PM 71.1 °F 37.9 °F 30% 30.01 in 10.0 mi NW 17.3 mph - N/A   Scattered Clouds
4:53 PM 71.1 °F 36.0 °F 28% 30.01 in 10.0 mi NW 20.7 mph 29.9 mph N/A   Scattered Clouds
5:53 PM 70.0 °F 36.0 °F 29% 30.02 in 10.0 mi WNW 17.3 mph 27.6 mph N/A   Clear
6:53 PM 69.1 °F 37.0 °F 31% 30.03 in 10.0 mi WNW 13.8 mph - N/A   Clear
7:01 PM 69.1 °F 36.0 °F 30% 30.03 in 10.0 mi WNW 13.8 mph - N/A   Partly Cloudy
7:53 PM 64.9 °F 39.0 °F 39% 30.04 in 10.0 mi WNW 9.2 mph - N/A   Clear
8:53 PM 60.1 °F 41.0 °F 49% 30.05 in 10.0 mi West 3.5 mph - N/A   Clear
9:53 PM 57.0 °F 46.0 °F 67% 30.06 in 10.0 mi Calm Calm - N/A   Clear
10:53 PM 52.0 °F 45.0 °F 77% 30.08 in 10.0 mi Calm Calm - N/A   Clear
11:53 PM 54.0 °F 45.0 °F 72% 30.08 in 10.0 mi SSW 4.6 mph - N/A   Clear